map of IOS home
Great Circle Mapper logo
IOS - Airport
Location
City:  Ilhéus, Bahia, Brazil
Near (Alt.):Bahia
Name:Jorge Amado Airport
ICAO / IATA:SBIL / IOS

Details
Type:Airport (Aerodrome, Airfield)
Use:Public/Civil
Latitude:14°48'57"S (-14.815963)
Longitude:39°02'00"W (-39.033196)
Datum:WGS 1984
Elevation:15 ft (5 m)
Variation:23.59°W (WMM2015 magnetic declination)
-0.04° annual change
Runways:1
Longest:5174 × 148 ft (1577 × 45 m), paved

Time
Time Zone:UTC-3
Local Time:

Weather
METAR:SBIL 270100Z 24005KT 9999 SCT025 BKN080 26/23 Q1014
TAF:SBIL 262200Z 2700/2712 15005KT 9999 FEW025 TN24/2708Z TX27/2711Z
BECMG 2702/2704 25005KT PROB30
TEMPO 2703/2710 7000 SHRA SCT020 FEW025TCU
RMK PBQ

Related Locations
Nearby:
Farthest:GUM: 12174 mi / 19592 km
Agana [Guam Intl (Antonio B. Won Pat Intl)], GU, US

Find:

   beyond  
but within

Other Information
Maps:
NOTAMs:
Links:
Sources:

  
flag of Brazil
flag of Bahia
  

Sectional Chart

Flight Planning
at skyvector.com

Satellite Image

Google Maps Satellite View

 

Copyright © 2004-2015 Karl L. Swartz. All rights reserved.
The Great Circle Mapper name and logo are trademarks of the Great Circle Mapper.
All other trademarks mentioned herein belong to their respective owners.
Please see credits for attibutions and further copyright information.

  Follow gcmap on Facebook Follow gcmap on Twitter Follow gcmap on Google+

hCard Microformat

Geo Microformat